Location: Brasstown Bald
(34.8693°N, 83.8103°W)
Time: 12:43:53
(UTC-04:00)

Amateur Radio Satellites - All Passes

Search period start: 25 August 2016 12:13
Search period end: 26 August 2016 12:13
Location: Brasstown Bald, 34.8693°N, 83.8103°W

Satellite Date Start Highest point End Downlink Frequencies (MHz)
Time Altitude Azimuth
VELOX 1 25 Aug 12:15:05 12:16:17 11° 92° (E) 12:17:29 145.980
GONETS M04 25 Aug 12:20:02 12:27:40 35° 86° (E) 12:35:20
UNISAT 6 25 Aug 12:20:25 12:23:14 16° 266° (W) 12:26:02 437.425
CUBEBUG 1 25 Aug 12:22:48 12:25:49 18° 94° (E) 12:28:49 437.445
RS-15 25 Aug 12:24:01 12:36:27 86° 244° (WSW) 12:48:32 29.354- 29.394
JAS-2 25 Aug 12:24:37 12:29:14 34° 69° (ENE) 12:34:00 435.910
QB50P2 25 Aug 12:29:04 12:33:21 82° 258° (WSW) 12:37:39 145.880/145.840
DUCHIFAT 1 25 Aug 12:30:26 12:34:41 85° 77° (ENE) 12:38:58 145.980
POLYITAN 1 25 Aug 12:31:36 12:35:53 80° 258° (WSW) 12:40:12 437.675
DX 1 25 Aug 12:40:36 12:43:03 15° 94° (E) 12:45:30 434.975-435.025
ESTCUBE 1 25 Aug 12:41:20 12:45:43 47° 100° (E) 12:50:05 437.505/2401.250
BEESAT 2 25 Aug 12:42:49 12:45:24 17° 310° (NW) 12:48:00 435.950
NANOSAT C BR1 25 Aug 12:42:56 12:47:08 62° 259° (WSW) 12:51:23 145.865
HUMSAT D 25 Aug 12:45:58 12:48:54 19° 290° (WNW) 12:51:49 437.325/437.525
PCSat 25 Aug 12:51:20 12:56:36 55° 112° (ESE) 13:01:53 145.827
AIST 2 25 Aug 12:52:41 12:55:45 21° 110° (ESE) 12:58:51 435.215
SPROUT 25 Aug 12:53:37 12:56:07 15° 94° (E) 12:58:36 437.525
50 SAT 25 Aug 12:57:42 13:01:03 35° 98° (E) 13:04:25 437.505
AISAT 25 Aug 13:01:05 13:05:21 42° 99° (E) 13:09:33 437.250
CUSAT 1 25 Aug 13:10:39 13:15:30 22° 270° (W) 13:20:56 437.405
AUBIESAT-1 25 Aug 13:19:09 13:22:58 40° 292° (WNW) 13:26:31 437.475
Cosmos 2499 25 Aug 13:19:34 13:27:53 70° 93° (E) 13:35:36 435.465 / 435.565
M-CUBED/EXP-1 PRIME 25 Aug 13:22:37 13:26:15 30° 294° (WNW) 13:29:38 437.505
UKube-1 25 Aug 13:24:57 13:28:59 37° 99° (E) 13:32:59 .
QB50P1 25 Aug 13:26:50 13:29:47 18° 265° (W) 13:32:45 145.935-145.965
JUGNU 25 Aug 13:27:37 13:31:15 17° 173° (S) 13:34:52 437.505
Gurwin Techsat 1B 25 Aug 13:29:34 13:31:45 13° 63° (ENE) 13:33:57 435.225
BUGSAT 1 25 Aug 13:37:17 13:41:12 36° 262° (W) 13:45:09 437.445
POPSAT HIP 1 25 Aug 13:37:18 13:39:36 14° 267° (W) 13:41:56 437.405
DANDE 25 Aug 13:41:08 13:45:39 25° 266° (W) 13:51:07 436.750
VELOX 1 25 Aug 13:48:40 13:53:02 55° 286° (WNW) 13:57:22 145.980
CUBEBUG 1 25 Aug 13:58:10 14:02:09 33° 288° (WNW) 14:06:06 437.445
JAS-2 25 Aug 14:10:27 14:14:25 22° 265° (W) 14:18:30 435.910
DX 1 25 Aug 14:15:16 14:19:23 40° 287° (WNW) 14:23:27 434.975-435.025
GONETS M04 25 Aug 14:16:00 14:24:11 44° 283° (WNW) 14:32:29
Oscar 19 25 Aug 14:16:26 14:21:35 85° 75° (ENE) 14:26:47 437.125/150
ESTCUBE 1 25 Aug 14:19:42 14:22:05 14° 294° (WNW) 14:24:27 437.505/2401.250
SPROUT 25 Aug 14:28:13 14:32:09 36° 287° (WNW) 14:36:03 437.525
AIST 2 25 Aug 14:30:28 14:34:02 28° 305° (NW) 14:37:39 435.215
50 SAT 25 Aug 14:32:56 14:34:17 12° 292° (WNW) 14:35:38 437.505
PCSat 25 Aug 14:36:30 14:40:19 19° 309° (NW) 14:44:10 145.827
O/OREOS (USA 219) 25 Aug 14:36:49 14:40:47 32° 103° (ESE) 14:44:49 437.305
AISAT 25 Aug 14:38:51 14:41:25 15° 294° (WNW) 14:43:59 437.250
RS-15 25 Aug 14:39:42 14:47:04 19° 262° (W) 14:54:22 29.354- 29.394
SWISSCUBE 25 Aug 14:50:55 14:53:20 14° 93° (E) 14:55:45 437.505
TISAT 1 25 Aug 14:56:37 15:00:51 89° 277° (W) 15:05:01 437.305
SRMSAT 25 Aug 15:00:10 15:03:06 14° 169° (S) 15:06:01 437.500
UKube-1 25 Aug 15:02:01 15:04:41 16° 293° (WNW) 15:07:21 .
Gurwin Techsat 1B 25 Aug 15:05:44 15:11:02 73° 258° (WSW) 15:16:21 435.225
BEESAT 25 Aug 15:07:31 15:10:54 19° 95° (E) 15:14:17 436.000
AO-7 25 Aug 15:08:25 15:15:15 29° 60° (ENE) 15:22:04 29.400- 29.500
JUGNU 25 Aug 15:15:43 15:19:33 18° 184° (S) 15:23:21 437.505
Cosmos 2499 25 Aug 15:15:45 15:21:28 20° 289° (WNW) 15:26:58 435.465 / 435.565
ITAMSAT 1 25 Aug 15:25:03 15:30:03 50° 72° (ENE) 15:35:03 435.822/435.867
ITUPSAT 1 25 Aug 15:52:08 15:56:51 59° 101° (E) 16:01:32 437.325
ISS 25 Aug 15:58:01 15:58:54 11° 25° (NNE) 15:59:47 145.825
AO-85 25 Aug 16:13:36 16:17:48 86° 66° (ENE) 16:21:42 145.980
O/OREOS (USA 219) 25 Aug 16:16:57 16:20:14 20° 299° (WNW) 16:23:32 437.305
SWISSCUBE 25 Aug 16:26:46 16:31:21 50° 287° (WNW) 16:35:57 437.505
BEESAT 25 Aug 16:44:24 16:48:45 36° 289° (WNW) 16:53:05 436.000
SRMSAT 25 Aug 16:47:36 16:51:32 18° 179° (S) 16:55:26 437.500
AO-7 25 Aug 16:59:16 17:07:28 59° 257° (WSW) 17:15:42 29.400- 29.500
JUGNU 25 Aug 17:05:35 17:07:48 12° 193° (SSW) 17:10:01 437.505
ITAMSAT 1 25 Aug 17:06:37 17:09:44 16° 266° (W) 17:12:53 435.822/435.867
BRITE-PL 25 Aug 17:13:46 17:14:35 10° 61° (ENE) 17:15:24 437.365/2234.400
MOZHAYETS 4 25 Aug 17:19:46 17:24:21 77° 102° (ESE) 17:28:56
ITUPSAT 1 25 Aug 17:32:03 17:34:08 13° 296° (WNW) 17:36:13 437.325
KKS-1 25 Aug 17:32:19 17:36:48 80° 103° (ESE) 17:41:14 437.445
ISS 25 Aug 17:32:36 17:35:52 71° 42° (NE) 17:39:07 145.825
Cubesat XI-IV 25 Aug 17:38:59 17:39:43 10° 61° (ENE) 17:40:28 437.490
HORYU 2 25 Aug 17:49:13 17:53:41 76° 75° (ENE) 17:58:08 437.375
CUTE-I 25 Aug 17:49:33 17:52:14 14° 63° (ENE) 17:54:55 437.470
NOAA 15 25 Aug 17:57:33 18:01:30 22° 66° (ENE) 18:05:27 137.62
Cosmos 2491 25 Aug 17:57:35 18:03:15 19° 81° (E) 18:08:55 435.465 / 435.565
NOAA 18 25 Aug 18:07:15 18:11:13 21° 65° (ENE) 18:15:12 137.9125
Cosmos 2504 25 Aug 18:14:50 18:16:39 11° 65° (ENE) 18:18:27 435.465 / 435.565
STARS 25 Aug 18:15:08 18:19:32 69° 284° (WNW) 18:23:51 437.465
YUBILEINY 25 Aug 18:18:48 18:27:18 51° 78° (ENE) 18:35:41 435.215
CUBESAT XI-V 25 Aug 18:33:02 18:37:40 56° 100° (E) 18:42:16 437.345
GOMX 1 25 Aug 18:36:19 18:40:49 36° 71° (ENE) 18:45:35 467.674
SRMSAT 25 Aug 18:36:37 18:39:58 15° 189° (S) 18:43:19 437.500
BRITE-PL 25 Aug 18:47:34 18:52:11 76° 258° (WSW) 18:57:17 437.365/2234.400
DOVE 4 25 Aug 18:55:44 18:59:55 26° 69° (ENE) 19:04:14 437.250
Cubesat XI-IV 25 Aug 19:13:38 19:18:59 88° 254° (WSW) 19:24:22 437.490
CUTE-I 25 Aug 19:26:23 19:31:41 66° 258° (WSW) 19:36:59 437.470
LilacSat-2 25 Aug 19:27:22 19:31:08 50° 260° (W) 19:34:53 437.200
NOAA 15 25 Aug 19:36:05 19:40:58 39° 261° (W) 19:45:53 137.62
HO-68 25 Aug 19:42:20 19:48:21 30° 64° (ENE) 19:54:22 435.675
CANX-2 25 Aug 19:44:56 19:47:28 16° 68° (ENE) 19:50:01 2200.000
NOAA 18 25 Aug 19:46:09 19:51:29 47° 260° (W) 19:56:49 137.9125
BEESAT 3 25 Aug 19:47:51 19:51:21 29° 55° (NE) 19:54:49 437.485
Cosmos 2491 25 Aug 19:50:23 19:59:03 74° 278° (W) 20:07:49 435.465 / 435.565
CUTE 1.7 + AOD 2 25 Aug 19:51:27 19:54:03 16° 68° (ENE) 19:56:40 437.475
CINEMA 3 25 Aug 19:53:58 19:58:15 29° 70° (ENE) 20:02:30 145.822/145.860
Cosmos 2504 25 Aug 20:03:52 20:11:08 85° 84° (E) 20:18:19 435.465 / 435.565
CUBESAT XI-V 25 Aug 20:12:22 20:14:31 13° 294° (WNW) 20:16:40 437.345
COMPASS 1 25 Aug 20:12:47 20:14:41 13° 67° (ENE) 20:16:36 437.405
GOMX 1 25 Aug 20:15:10 20:18:58 22° 267° (W) 20:22:57 467.674
YUBILEINY 25 Aug 20:16:23 20:23:36 30° 276° (W) 20:30:47 435.215
CUBEBUG 2 25 Aug 20:29:09 20:32:18 18° 68° (ENE) 20:35:25 437.445
STRAND 1 25 Aug 20:32:40 20:37:36 48° 100° (E) 20:42:32 437.568
DOVE 4 25 Aug 20:32:54 20:37:23 32° 264° (W) 20:42:04 437.250
UWE-3 25 Aug 20:33:10 20:35:05 13° 66° (ENE) 20:37:00 435.000/436.395/437.385
ZACube-1 25 Aug 20:53:02 20:55:00 13° 67° (ENE) 20:56:57 437.345
AIST 1 25 Aug 21:01:14 21:04:50 24° 77° (ENE) 21:08:24
SEEDS 25 Aug 21:02:02 21:06:11 81° 78° (ENE) 21:10:21 437.485
BEESAT 2 25 Aug 21:02:04 21:06:04 77° 244° (WSW) 21:10:03 435.950
CANX-2 25 Aug 21:19:09 21:23:00 35° 262° (W) 21:26:52 2200.000
CUTE 1.7 + AOD 2 25 Aug 21:25:46 21:29:35 34° 262° (W) 21:33:26 437.475
BEESAT 3 25 Aug 21:25:59 21:28:47 19° 250° (WSW) 21:31:34 437.485
HO-68 25 Aug 21:28:52 21:35:44 47° 260° (W) 21:42:38 435.675
CINEMA 3 25 Aug 21:31:00 21:35:14 28° 264° (W) 21:39:30 145.822/145.860
AAUSAT CUBESAT 2 25 Aug 21:39:59 21:44:03 66° 259° (W) 21:48:09 437.432
PCSat 25 Aug 21:43:08 21:47:24 23° 53° (NE) 21:51:38 145.827
COMPASS 1 25 Aug 21:45:56 21:49:50 41° 262° (W) 21:53:46 437.405
Cosmos 2491 25 Aug 21:54:46 21:57:28 12° 297° (WNW) 22:00:09 435.465 / 435.565
HUMSAT D 25 Aug 21:59:33 22:01:28 13° 67° (ENE) 22:03:21 437.325/437.525
Cosmos 2504 25 Aug 22:00:52 22:03:22 12° 281° (W) 22:05:52 435.465 / 435.565
Oscar 11 25 Aug 22:01:59 22:06:16 81° 79° (ENE) 22:10:36 145.826/435.025
DELFI C3 25 Aug 22:03:46 22:07:12 30° 72° (ENE) 22:10:38 145.870
CUBEBUG 2 25 Aug 22:04:10 22:08:35 39° 262° (W) 22:12:58 437.445
FUNcube-1 25 Aug 22:06:06 22:10:37 84° 76° (ENE) 22:15:02 145.935
UWE-3 25 Aug 22:06:31 22:11:03 56° 260° (W) 22:15:31 435.000/436.395/437.385
STRAND 1 25 Aug 22:13:06 22:16:21 17° 295° (WNW) 22:19:36 437.568
ZACube-1 25 Aug 22:26:26 22:30:49 51° 260° (W) 22:35:09 437.345
AUBIESAT-1 25 Aug 22:29:00 22:31:04 13° 60° (ENE) 22:33:07 437.475
PRISM 25 Aug 22:29:06 22:33:17 80° 284° (WNW) 22:37:27 437.425
M-CUBED/EXP-1 PRIME 25 Aug 22:31:35 22:34:36 17° 62° (ENE) 22:37:38 437.505
GONETS M04 25 Aug 22:36:18 22:40:22 14° 64° (ENE) 22:44:24
AIST 1 25 Aug 22:38:51 22:42:17 22° 271° (W) 22:45:41
AIST 2 25 Aug 22:54:07 22:58:16 64° 59° (ENE) 23:02:25 435.215
ANTELSAT 25 Aug 23:14:30 23:18:09 27° 97° (E) 23:21:46 437.575/2403.000
Cosmos 2499 25 Aug 23:16:56 23:21:00 16° 69° (ENE) 23:25:04 435.465 / 435.565
CUBEBUG 1 25 Aug 23:17:59 23:18:40 10° 64° (ENE) 23:19:20 437.445
PCSat 25 Aug 23:25:50 23:30:57 44° 250° (WSW) 23:36:03 145.827
HUMSAT D 25 Aug 23:32:41 23:36:41 43° 261° (W) 23:40:39 437.325/437.525
ESTCUBE 1 25 Aug 23:37:49 23:41:40 29° 71° (ENE) 23:45:30 437.505/2401.250
DELFI C3 25 Aug 23:39:42 23:42:04 15° 266° (W) 23:44:27 145.870
TIGRISAT 25 Aug 23:45:38 23:49:53 62° 101° (E) 23:54:04 435.000
AISAT 25 Aug 23:55:27 23:59:06 25° 70° (ENE) 00:02:46 437.250
AUBIESAT-1 26 Aug 00:00:24 00:04:54 63° 254° (WSW) 00:09:32 437.475
M-CUBED/EXP-1 PRIME 26 Aug 00:04:14 00:08:39 47° 256° (WSW) 00:13:13 437.505
UNISAT 6 26 Aug 00:13:36 00:17:47 54° 285° (WNW) 00:21:55 437.425
UKube-1 26 Aug 00:16:44 00:20:00 21° 69° (ENE) 00:23:17 .
QB50P2 26 Aug 00:18:11 00:21:20 20° 95° (E) 00:24:28 145.880/145.840
DUCHIFAT 1 26 Aug 00:19:05 00:21:48 17° 94° (E) 00:24:30 145.980
POLYITAN 1 26 Aug 00:20:42 00:23:52 20° 95° (E) 00:27:00 437.675
GONETS M04 26 Aug 00:29:39 00:38:34 81° 84° (E) 00:47:24
CUSAT 1 26 Aug 00:29:49 00:32:27 55° 95° (E) 00:35:30 437.405
NANOSAT C BR1 26 Aug 00:31:07 00:34:38 25° 96° (E) 00:38:07 145.865
RS-15 26 Aug 00:35:35 00:42:31 18° 98° (E) 00:49:36 29.354- 29.394
VELOX 1 26 Aug 00:42:08 00:46:33 85° 78° (ENE) 00:51:01 145.980
SO-50 26 Aug 00:45:16 00:50:06 72° 117° (ESE) 00:54:56 436.795
O/OREOS (USA 219) 26 Aug 00:49:43 00:53:58 37° 65° (ENE) 00:58:14 437.305
CUBEBUG 1 26 Aug 00:50:01 00:54:20 63° 259° (W) 00:58:44 437.445
ANTELSAT 26 Aug 00:51:31 00:54:40 20° 291° (WNW) 00:57:49 437.575/2403.000
50 SAT 26 Aug 01:04:47 01:08:09 40° 261° (W) 01:11:33 437.505
DANDE 26 Aug 01:06:44 01:09:09 34° 96° (E) 01:11:35 436.750
DX 1 26 Aug 01:06:49 01:11:10 74° 257° (WSW) 01:15:33 434.975-435.025
Cosmos 2499 26 Aug 01:07:44 01:14:45 72° 266° (W) 01:21:52 435.465 / 435.565
QB50P1 26 Aug 01:13:19 01:17:33 87° 279° (W) 01:21:44 145.935-145.965
ESTCUBE 1 26 Aug 01:15:01 01:18:25 21° 265° (W) 01:21:51 437.505/2401.250
SPROUT 26 Aug 01:17:38 01:21:56 77° 258° (WSW) 01:26:16 437.525
JAS-2 26 Aug 01:19:17 01:25:58 51° 100° (E) 01:33:17 435.910
BUGSAT 1 26 Aug 01:22:18 01:26:11 38° 98° (E) 01:30:00 437.445
POPSAT HIP 1 26 Aug 01:23:09 01:27:21 67° 284° (WNW) 01:31:29 437.405
AISAT 26 Aug 01:31:52 01:35:27 24° 264° (W) 01:39:06 437.250
TISAT 1 26 Aug 01:44:43 01:48:43 41° 73° (ENE) 01:52:43 437.305
UKube-1 26 Aug 01:52:10 01:55:51 27° 263° (W) 01:59:33 .
QB50P2 26 Aug 01:53:32 01:57:05 27° 289° (WNW) 02:00:37 145.880/145.840
DUCHIFAT 1 26 Aug 01:53:48 01:57:32 32° 288° (WNW) 02:01:14 145.980
SWISSCUBE 26 Aug 01:55:23 01:57:03 12° 64° (ENE) 01:58:43 437.505
POLYITAN 1 26 Aug 01:56:06 01:59:37 26° 289° (WNW) 02:03:06 437.675
NANOSAT C BR1 26 Aug 02:07:00 02:10:12 21° 290° (WNW) 02:13:23 145.865
BEESAT 26 Aug 02:11:25 02:14:18 16° 66° (ENE) 02:17:10 436.000
SO-50 26 Aug 02:28:27 02:31:04 14° 314° (NW) 02:33:40 436.795
GONETS M04 26 Aug 02:28:57 02:34:13 18° 280° (W) 02:39:29
O/OREOS (USA 219) 26 Aug 02:30:02 02:33:03 17° 260° (W) 02:36:02 437.305
Oscar 19 26 Aug 02:31:37 02:36:29 39° 98° (E) 02:41:18 437.125/150
RS-15 26 Aug 02:41:38 02:53:04 88° 116° (ESE) 03:05:13 29.354- 29.394
ITUPSAT 1 26 Aug 02:55:31 03:00:04 46° 73° (ENE) 03:04:37 437.325
PHONESAT 2.4 26 Aug 02:57:00 02:59:52 42° 151° (SSE) 03:02:44 2401.200-2431.200
BUGSAT 1 26 Aug 02:59:00 03:01:11 14° 293° (WNW) 03:03:20 437.445
JAS-2 26 Aug 03:05:03 03:10:40 28° 292° (WNW) 03:16:44 435.910
TISAT 1 26 Aug 03:22:27 03:24:30 13° 267° (W) 03:26:35 437.305
Gurwin Techsat 1B 26 Aug 03:25:22 03:30:37 60° 101° (E) 03:35:51 435.225
SWISSCUBE 26 Aug 03:29:33 03:34:15 64° 259° (WSW) 03:38:59 437.505
ITAMSAT 1 26 Aug 03:41:52 03:45:57 23° 96° (E) 03:50:01 435.822/435.867
BEESAT 26 Aug 03:47:06 03:51:40 46° 260° (W) 03:56:14 436.000
Oscar 19 26 Aug 04:11:35 04:15:30 22° 293° (WNW) 04:19:24 437.125/150
MOZHAYETS 4 26 Aug 04:18:11 04:22:33 47° 74° (ENE) 04:26:56
KKS-1 26 Aug 04:26:50 04:31:07 47° 73° (ENE) 04:35:26 437.445
PHONESAT 2.4 26 Aug 04:33:26 04:36:15 38° 346° (NNW) 04:39:05 2401.200-2431.200
ITUPSAT 1 26 Aug 04:35:24 04:38:04 15° 266° (W) 04:40:46 437.325
RS-15 26 Aug 04:57:36 05:07:15 29° 322° (NW) 05:17:19 29.354- 29.394
AO-7 26 Aug 05:04:31 05:12:44 61° 104° (ESE) 05:20:52 29.400- 29.500
Gurwin Techsat 1B 26 Aug 05:07:02 05:10:01 15° 296° (WNW) 05:13:00 435.225
STARS 26 Aug 05:07:59 05:12:23 67° 75° (ENE) 05:16:48 437.465
ITAMSAT 1 26 Aug 05:20:46 05:25:25 35° 290° (WNW) 05:30:05 435.822/435.867
CUBESAT XI-V 26 Aug 05:33:06 05:37:17 36° 72° (ENE) 05:41:30 437.345
HORYU 2 26 Aug 05:44:31 05:47:33 18° 95° (E) 05:50:34 437.375
MOZHAYETS 4 26 Aug 05:57:45 05:59:56 13° 268° (W) 06:02:06
Cosmos 2491 26 Aug 06:05:01 06:13:30 49° 78° (ENE) 06:21:56 435.465 / 435.565
KKS-1 26 Aug 06:05:49 06:07:53 13° 267° (W) 06:09:58 437.445
PHONESAT 2.4 26 Aug 06:10:25 06:13:01 26° 3° (N) 06:15:38 2401.200-2431.200
AO-85 26 Aug 06:23:08 06:28:28 68° 116° (ESE) 06:33:33 145.980
GOMX 1 26 Aug 06:42:54 06:46:03 16° 91° (E) 06:49:05 467.674
Cosmos 2504 26 Aug 06:50:10 06:52:54 12° 79° (E) 06:55:34 435.465 / 435.565
BRITE-PL 26 Aug 06:55:19 07:00:53 51° 99° (E) 07:06:16 437.365/2234.400
AO-7 26 Aug 06:58:15 07:04:54 28° 300° (WNW) 07:11:32 29.400- 29.500
LilacSat-2 26 Aug 07:04:40 07:07:29 20° 96° (E) 07:10:17 437.200
CUBESAT XI-V 26 Aug 07:11:38 07:14:44 18° 266° (W) 07:17:52 437.345
YUBILEINY 26 Aug 07:14:51 07:23:32 66° 92° (E) 07:32:15 435.215
HORYU 2 26 Aug 07:20:11 07:24:08 33° 289° (WNW) 07:28:04 437.375
RS-15 26 Aug 07:20:43 07:26:03 13° 357° (N) 07:31:26 29.354- 29.394
Cubesat XI-IV 26 Aug 07:34:25 07:39:34 49° 100° (E) 07:44:41 437.490
STRAND 1 26 Aug 07:45:11 07:50:06 49° 72° (ENE) 07:55:00 437.568
PHONESAT 2.4 26 Aug 07:46:45 07:49:43 57° 20° (NNE) 07:52:40 2401.200-2431.200
CUTE-I 26 Aug 07:46:47 07:52:04 66° 102° (ESE) 07:57:21 437.470
NOAA 15 26 Aug 07:54:06 07:59:26 81° 285° (WNW) 08:04:44 137.62
Cosmos 2491 26 Aug 08:02:27 08:09:54 32° 275° (W) 08:17:23 435.465 / 435.565
AO-85 26 Aug 08:06:00 08:09:20 17° 311° (NW) 08:12:33 145.980
NOAA 18 26 Aug 08:11:24 08:16:54 84° 285° (WNW) 08:22:21 137.9125
GOMX 1 26 Aug 08:19:09 08:24:27 55° 286° (WNW) 08:29:28 467.674
BRITE-PL 26 Aug 08:34:47 08:38:51 20° 294° (WNW) 08:42:52 437.365/2234.400
DOVE 4 26 Aug 08:34:58 08:40:03 83° 284° (WNW) 08:44:47 437.250
ISS 26 Aug 08:35:59 08:36:58 11° 126° (SE) 08:37:57 145.825
Cosmos 2504 26 Aug 08:36:28 08:45:05 80° 95° (E) 08:53:09 435.465 / 435.565
LilacSat-2 26 Aug 08:38:48 08:41:40 21° 289° (WNW) 08:44:32 437.200
SEEDS 26 Aug 08:50:15 08:53:01 17° 94° (E) 08:55:45 437.485
HO-68 26 Aug 09:00:05 09:06:48 42° 99° (E) 09:13:27 435.675
CANX-2 26 Aug 09:07:01 09:11:06 47° 99° (E) 09:15:12 2200.000
CUTE 1.7 + AOD 2 26 Aug 09:13:28 09:17:35 48° 99° (E) 09:21:41 437.475
YUBILEINY 26 Aug 09:14:13 09:20:56 24° 290° (WNW) 09:27:42 435.215
PRISM 26 Aug 09:15:05 09:18:56 43° 74° (ENE) 09:22:51 437.425
Cubesat XI-IV 26 Aug 09:15:39 09:19:13 18° 295° (WNW) 09:22:45 437.490
SO-50 26 Aug 09:20:35 09:24:24 25° 52° (NE) 09:28:08 436.795
PHONESAT 2.4 26 Aug 09:23:28 09:25:54 22° 213° (SSW) 09:28:19 2401.200-2431.200
AAUSAT CUBESAT 2 26 Aug 09:25:59 09:29:21 23° 96° (E) 09:32:42 437.432
STRAND 1 26 Aug 09:26:26 09:29:29 16° 267° (W) 09:32:32 437.568
AIST 1 26 Aug 09:27:50 09:30:34 17° 87° (E) 09:33:21
CINEMA 3 26 Aug 09:28:45 09:33:17 81° 285° (WNW) 09:37:35 145.822/145.860
CUTE-I 26 Aug 09:28:55 09:31:30 14° 297° (WNW) 09:34:06 437.470
COMPASS 1 26 Aug 09:31:52 09:35:44 36° 98° (E) 09:39:36 437.405
RS-15 26 Aug 09:35:57 09:45:26 24° 34° (NE) 09:54:49 29.354- 29.394
BEESAT 3 26 Aug 09:38:05 09:38:47 10° 107° (ESE) 09:39:28 437.485
Oscar 11 26 Aug 09:53:26 09:56:29 19° 95° (E) 09:59:31 145.826/435.025
CUBEBUG 2 26 Aug 09:58:22 10:02:31 54° 100° (E) 10:06:34 437.445
FUNcube-1 26 Aug 09:58:32 10:01:28 19° 94° (E) 10:04:24 145.935
UWE-3 26 Aug 09:59:52 10:03:42 35° 98° (E) 10:07:29 435.000/436.395/437.385
ISS 26 Aug 10:09:50 10:13:03 54° 320° (NW) 10:16:17 145.825
ANTELSAT 26 Aug 10:10:29 10:13:39 19° 68° (ENE) 10:16:46 437.575/2403.000
ZACube-1 26 Aug 10:18:18 10:22:09 35° 98° (E) 10:25:56 437.345
SEEDS 26 Aug 10:25:00 10:28:44 32° 288° (WNW) 10:32:29 437.485
Cosmos 2504 26 Aug 10:33:51 10:39:08 18° 290° (WNW) 10:44:17 435.465 / 435.565
TIGRISAT 26 Aug 10:40:40 10:44:55 37° 72° (ENE) 10:49:07 435.000
CANX-2 26 Aug 10:44:45 10:46:31 12° 293° (WNW) 10:48:16 2200.000
HO-68 26 Aug 10:48:04 10:54:17 33° 295° (WNW) 11:00:28 435.675
BEESAT 2 26 Aug 10:50:44 10:54:25 40° 114° (ESE) 10:58:08 435.950
CUTE 1.7 + AOD 2 26 Aug 10:51:18 10:52:58 12° 293° (WNW) 10:54:36 437.475
PRISM 26 Aug 10:53:03 10:54:27 11° 267° (W) 10:55:52 437.425
SO-50 26 Aug 11:00:54 11:04:49 29° 248° (WSW) 11:08:39 436.795
AAUSAT CUBESAT 2 26 Aug 11:01:25 11:04:41 23° 289° (WNW) 11:07:58 437.432
CUSAT 1 26 Aug 11:02:19 11:08:32 45° 79° (ENE) 11:15:51 437.405
AIST 1 26 Aug 11:04:00 11:07:51 31° 282° (WNW) 11:11:46
UNISAT 6 26 Aug 11:08:17 11:12:56 84° 79° (E) 11:17:31 437.425
COMPASS 1 26 Aug 11:08:30 11:10:57 15° 292° (WNW) 11:13:24 437.405
QB50P2 26 Aug 11:09:43 11:10:47 11° 65° (ENE) 11:11:51 145.880/145.840
POLYITAN 1 26 Aug 11:12:07 11:13:18 11° 65° (ENE) 11:14:30 437.675
BEESAT 3 26 Aug 11:12:10 11:15:57 49° 302° (WNW) 11:19:47 437.485
DELFI C3 26 Aug 11:18:32 11:22:33 82° 103° (ESE) 11:26:33 145.870
HUMSAT D 26 Aug 11:19:18 11:23:03 34° 98° (E) 11:26:46 437.325/437.525
NANOSAT C BR1 26 Aug 11:21:23 11:23:26 13° 67° (ENE) 11:25:31 145.865
JUGNU 26 Aug 11:26:35 11:27:52 11° 165° (SSE) 11:29:10 437.505
Oscar 11 26 Aug 11:28:50 11:32:36 30° 288° (WNW) 11:36:22 145.826/435.025
GONETS M04 26 Aug 11:33:51 11:39:03 17° 79° (E) 11:44:14
JAS-2 26 Aug 11:34:02 11:34:49 10° 60° (ENE) 11:35:38 435.910
FUNcube-1 26 Aug 11:34:12 11:37:42 27° 289° (WNW) 11:41:11 145.935
UWE-3 26 Aug 11:37:23 11:39:50 15° 292° (WNW) 11:42:16 435.000/436.395/437.385
CUBEBUG 2 26 Aug 11:37:51 11:38:36 10° 295° (WNW) 11:39:21 437.445
DANDE 26 Aug 11:43:22 11:48:28 37° 80° (E) 11:54:53 436.750
ANTELSAT 26 Aug 11:45:46 11:50:03 36° 262° (W) 11:54:17 437.575/2403.000
AUBIESAT-1 26 Aug 11:45:55 11:46:39 10° 95° (E) 11:47:22 437.475
M-CUBED/EXP-1 PRIME 26 Aug 11:48:39 11:51:05 16° 97° (E) 11:53:25 437.505
Cosmos 2499 26 Aug 11:50:31 11:55:01 16° 82° (E) 11:59:22 435.465 / 435.565
ZACube-1 26 Aug 11:55:44 11:58:06 15° 292° (WNW) 12:00:27 437.345
QB50P1 26 Aug 12:02:10 12:06:13 43° 73° (ENE) 12:10:16 145.935-145.965
